Location: Proctor
(47.8934°N, 114.3048°W)
Time: 20:55:20
(UTC+00:00)

Tiros 1 despin weight - Pass Details

Date: 26 June 2024
Orbit: 576 x 620 km, 48.2° (Epoch: 19 July)

Event Time Altitude Azimuth Distance (km) Brightness Sun altitude
Rises 21:41:01 0° 278° (W) 2,895 ? 55.7°
Reaches altitude 10° 21:43:20 10° 278° (W) 1,990 ? 55.4°
Maximum altitude 21:47:55 87° 193° (SSW) 627 ? 54.7°
Drops below altitude 10° 21:52:30 10° 102° (ESE) 1,979 ? 54.1°
Sets 21:54:48 0° 102° (ESE) 2,879 ? 53.7°
